Regional Weather Roundup
Issued by NWS Mt. Holly, NJ

Home | Current Version | Previous Version | Text Only | Print | Product List | Glossary On
Versions: 1 2 3 4 5 6 7 8 9 10 11 12 13 14 15 16 17 18 19 20 21 22 23 24 25 26 27 28 29 30 31 32 33 34 35 36 37 38 39 40 41 42 43 44 45 46 47 48 49 50
000
ASUS41 KPHI 270410
RWRPHI

REGIONAL WEATHER ROUNDUP
NATIONAL WEATHER SERVICE MOUNT HOLLY NJ
1100 PM EST MON JAN 26 2015

NOTE:  "FAIR" INDICATES FEW OR NO CLOUDS BELOW 12,000 FEET WITH NO
SIGNIFICANT WEATHER AND/OR OBSTRUCTIONS TO VISIBILITY.

 * = STATION DOES NOT REPORT PRECIPITATION (E.G. RAIN, SNOW, ETC.)
        OR FOG.

NJZ015>026-270500-
SOUTHERN NEW JERSEY

CITY           SKY/WX    TMP DP  RH WIND       PRES   REMARKS
POMONA         CLOUDY    30  25  80 N17G29    29.62F WCI  18
RIO GRANDE*    CLOUDY    32  25  74 N17G25    29.61R WCI  21
MILLVILLE      CLOUDY    30  24  78 N20G31    29.64F WCI  17
WRIGHTSTOWN    CLOUDY    28  23  82 N13       29.66S WCI  17
MOUNT HOLLY    CLOUDY    27  21  78 N15       29.69F WCI  15
TRENTON        FLURRIES  27  19  72 N14G23    29.70F WCI  16

$$
NJZ001>014-270500-
NORTHERN NEW JERSEY

CITY           SKY/WX    TMP DP  RH WIND       PRES   REMARKS
SUSSEX         LGT SNOW  21  15  78 NE14G24   29.76F WCI   8
ANDOVER*         N/A     20  15  81 NE10G17   29.75F WCI   9
MORRISTOWN     FLURRIES  25  18  74 N14       29.75F WCI  13
NEWARK         LGT SNOW  24  21  88 N22G29    29.73F FOG     WCI   9
TETERBORO      LGT SNOW  23  19  86 N9G18     29.73F BLWGSNOWWCI  13
CALDWELL       LGT SNOW  22  18  85 N8        29.74F FOG     WCI  12
SOMERVILLE     CLOUDY    26  17  68 N14G21    29.72F WCI  14
ALLAIRE*       CLOUDY    27  19  74 NE20G29   29.66F WCI  13
TOMS RIVER*    CLOUDY    27  27 100 NE16G32   29.65F WCI  14

$$
PAZ043-044-047-054-055-060>062-066>071-270500-
EASTERN PENNSYLVANIA

CITY           SKY/WX    TMP DP  RH WIND       PRES   REMARKS
PHILADELPHIA   FLURRIES  29  22  75 N15       29.71F WCI  18
NORTH PHILA    CLOUDY    29  19  66 NE20G26   29.72F WCI  16
BLUE BELL      CLOUDY    30  23  74 NE7       29.71S WCI  23
DOYLESTOWN     CLOUDY    25  20  81 NE13G23   29.70F WCI  14
POTTSTOWN      CLOUDY    24  17  74 N8        29.74F WCI  15
LANCASTER      CLOUDY    24  18  77 NE14      29.75S WCI  12
COATESVILLE    MOCLDY    25  21  86 N10G18    29.71S WCI  15
READING        CLOUDY    25  18  74 NE8       29.76S WCI  16
ALLENTOWN      CLOUDY    25  17  72 NE9       29.76F WCI  15
MOUNT POCONO   CLOUDY    19  14  81 NE12G23   29.68F WCI   7
HAZLETON       CLOUDY    25  19  80 N5        29.73S WCI  19
WILKES BARRE   CLOUDY    24  15  68 NE12      29.77F WCI  13

$$
DEZALL-MDZ008-012-015-019-020-270500-
DELAWARE AND EASTERN MARYLAND

CITY           SKY/WX    TMP DP  RH WIND       PRES   REMARKS
WILMINGTON     LGT SNOW  28  23  81 N18       29.71F WCI  15
DOVER          CLOUDY    29  29  98 N15       29.68R WCI  18
GEORGETOWN     CLOUDY    32  27  81 N14G23    29.65R WCI  22
EASTON         FLURRIES  31  31  99 N10       29.74R WCI  22
PATUXENT       LGT SNOW  31  27  85 N18       29.70R FOG     WCI  19
OCEAN CITY     CLOUDY    35  32  88 N22G35    29.60R WCI  23
WALLOPS ISLAND LGT RAIN  33  32  96 N14       29.60R WCI  23
CAMBRIDGE      CLOUDY    32  28  86 CALM      29.68S
SALISBURY      CLOUDY    34  29  82 N14G25    29.63S WCI  25

$$
PAZ001-021-NYZ056-072-MDZ011-DCZ001-270500-
OTHER NEARBY LOCATIONS

CITY           SKY/WX    TMP DP  RH WIND       PRES   REMARKS
HARRISBURG     CLOUDY    25  20  81 NW7       29.78F WCI  17
STATE COLLEGE  FLURRIES  22  20  92 N3        29.79S
WILLIAMSPORT   LGT SNOW  24  20  84 W6        29.82F FOG     WCI  17
BINGHAMTON     CLOUDY    16  13  88 NE10      29.78S WCI   4
NEW YORK CITY  LGT SNOW  25  20  81 NE12G30   29.73F VSB 3/4 WCI  14
BALTIMORE      LGT SNOW  27  22  81 N8G17     29.74S WCI  19
WASHINGTON DC  LGT SNOW  29  23  78 NW15      29.76F WCI  18

$$



USA.gov is the U.S. government's official web portal to all federal, state and local government web resources and services.